NWS Home NWS Lubbock West Texas Mesonet North Sector Latest Conditions as of 0629 PM, Sat May 25, 2019

Latest   N   C   S   Daily Sum   3hrΔ   24hrΔ   Soil Data 
Site Map   24hr Precip   72hr Precip   Google Plot


Station Time of Last Temp Dew Pt. RH Wind Direction Wind Speed Wind Gust Max Wind Max Temp Min Temp Max RH Min RH Altimeter 1HR Rain Today's Rain Solar Rad Wind ChillRed Flag
Adrian 6WSW  06:25 PM 71 63 76% SE2122 40 mph 121° @ 0244 PM 79 58 98 55 29.92" 0 0.23 434    
Aiken 3WSW  06:25 PM 63 62 97% W2123 30 mph 153° @ 0545 PM 72 62 99 78 30.00" 0.22 0.22 1    
Amarillo 15NNW   06:25 PM 71 63 77% SE1315 29 mph 290° @ 0349 PM 80 59 100 66 29.90" 0 0.34 412    
Amarillo 7SSE  06:15 PM 66 66 100% SE1821 31 mph 162° @ 0329 PM 77 59 100 70 29.95" 0.03 0.27 600    
Amarillo 9NNE  06:25 PM 67 62 82% SE1316 32 mph 173° @ 0653 AM 79 59 99 67 29.92" 0.01 0.52 414    
Amherst 1NE  06:25 PM 63 59 90% E1320 43 mph 167° @ 0555 PM 73 60 97 81 29.93" 0.22 1.33 556    
Bootleg 11WNW  06:25 PM 76 63 65% E1618 30 mph 6° @ 0153 PM 78 55 100 53 29.95" 0 0.88 400    
Boys Ranch 1WSW  06:25 PM 74 64 71% SE1418 35 mph 191° @ 0124 AM 82 59 95 56 29.90" 0 0.37 434    
Canadian 6E  06:25 PM 61 61 99% SW78 40 mph 285° @ 0521 PM 77 60 100 78 29.97" 0.09 0.65 2    
Caprock Canyons State Park  06:25 PM 70 67 90% N00 27 mph 165° @ 1208 AM 76 63 99 78 29.90" 0 0.00 2    
Childress 2NNE  06:25 PM 80 68 72% S1418 28 mph 173° @ 0530 PM 81 61 100 70 29.86" 0 0.00 17    
Clarendon 2WSW  06:25 PM 68 64 93% NW811 37 mph 277° @ 0420 PM 75 62 98 80 29.95" 0.03 0.96 2    
Claude 12SW  06:25 PM 63 62 94% E1014 35 mph 137° @ 0409 PM 73 62 100 76 29.96" 0.01 0.31 31    
Dimmitt 2NE  06:25 PM 69 59 74% SE1520 37 mph 147° @ 0255 PM 77 64 96 64 29.94" 0.02 0.03 284    
Dozier 3W  06:25 PM 69 69 99% NW1112 25 mph 229° @ 0519 PM 78 62 100 81 29.92" 0 0.55 16    
Earth 9WSW  06:25 PM 68 60 75% SE2124 42 mph 138° @ 0609 PM 75 63 96 70 29.93" 0 0.09 84    
Endee NM 2SW  06:25 PM 78 64 63% SE1821 43 mph 188° @ 0210 PM 80 59 96 48 29.87" 0 0.59 434    
Estelline 3SSE  06:25 PM 80 70 71% S1012 23 mph 182° @ 1223 PM 81 63 98 69 29.86" 0 0.00 10    
Floydada 2NNE  06:25 PM 74 67 82% SE1925 29 mph 143° @ 0510 PM 77 63 99 78 29.94" 0 0.01 7    
Friona 2NE  06:25 PM 74 62 71% E1822 33 mph 137° @ 0200 PM 78 60 98 61 29.93" 0.01 0.15 453    
Fritch 1WNW  06:25 PM 69 61 75% S1621 40 mph 243° @ 0331 PM 81 61 93 62 29.90" 0 0.28 439    
Goodlett 3W  06:25 PM 81 69 70% S1521 31 mph 164° @ 0530 PM 84 62 98 65 29.84" 0 0.02 28    
Goodnight  06:25 PM 62 62 100% N89 24 mph 155° @ 0318 AM 74 58 100 87 29.98" 0.02 0.35 43    
Happy 1E  06:25 PM 65 61 86% SE811 33 mph 161° @ 0344 PM 77 62 98 69 29.99" 0 0.14 38    
Hart 3N  06:25 PM 65 61 90% E1822 32 mph 146° @ 0255 PM 72 62 98 70 29.96" 0.04 0.12 12    
Hereford 2NW  06:25 PM 72 62 73% SE1625 42 mph 251° @ 0325 PM 79 58 98 61 29.93" 0 0.46 458    
Lake McClellan 2NW  06:25 PM 61 59 94% N44 46 mph 279° @ 0427 PM 72 60 99 82 29.97" 0.12 1.27 3    
Lesley 2S  06:25 PM 73 70 93% NW56 24 mph 172° @ 0110 PM 78 62 98 75 29.88" 0 0.01 3    
McLean 1E  06:25 PM 60 59 100% NW1419 45 mph 250° @ 0500 PM 73 61 100 86 29.96" 0.12 1.16 5    
Memphis 1NE  06:25 PM 76 69 85% W47 22 mph 169° @ 0140 PM 78 62 99 77 29.88" 0 0.00 8    
Muleshoe 2SSW  06:25 PM 72 59 65% SE2330 34 mph 143° @ 0215 PM 77 64 97 61 29.91" 0 0.36 567    
Northfield 1S  06:25 PM 78 67 73% S1215 25 mph 177° @ 0540 PM 81 62 98 68 29.89" 0 0.03 7    
Odell 4ENE  06:25 PM 83 70 66% S2429 31 mph 156° @ 0603 PM 85 64 96 63 29.85" 0 0.00 94    
Olton 6S  06:25 PM M M M% SE2030 52 mph 35° @ 0250 PM 90** M 99 M 29.96" 0.57 2.95 37 XX 20
Palo Duro 4E (JA Ranch)  06:25 PM 69 67 93% SW45 35 mph 187° @ 0428 PM 76 60 100 79 29.94" 0.07 0.42 4    
Palo Duro Canyon SP Floor  06:25 PM 67 63 89% NW34 23 mph 141° @ 0235 PM 79 64 95 68 29.95" 0 0.25 32    
Palo Duro Canyon State Park Rim  06:25 PM 63 60 90% SE68 29 mph 137° @ 0248 PM 76 62 96 70 29.97" 0.03 0.84 132    
Palo Duro Reservoir 1NW   06:25 PM 68 59 73% E57 55 mph 197° @ 0414 PM 83 57 97 59 29.90" 0 0.54 569    
Pampa 2E  06:25 PM 59 57 96% E47 36 mph 300° @ 0500 PM 74 59 100 77 29.92" 0.05 0.28 20    
Panhandle 1SSW  06:25 PM 62 60 92% S1416 33 mph 170° @ 0356 PM 75 58 100 76 29.94" 0.23 0.39 117    
Plainview 1S  06:25 PM 62 61 100% S24 39 mph 325° @ 0555 PM 70 61 100 86 29.98" 2.24 2.29 1    
Romero 11 SSW  06:25 PM 77 60 56% SE1719 27 mph 137° @ 0324 PM 82 58 99 48 29.89" 0 0.01 438    
Silverton 7ESE  06:25 PM 70 66 93% SE1216 27 mph 145° @ 0300 AM 73 63 100 85 29.92" 0 0.01 1    
South Plains 3ENE  06:25 PM 73 69 87% SE912 26 mph 183° @ 1119 AM 74 63 99 83 29.94" 0 0.00 2    
Stinnett 1NNW  06:25 PM 64 59 84% SE1116 48 mph 281° @ 0352 PM 80 56 100 63 29.95" 0 0.71 466    
Tulia 2ENE  06:25 PM 65 61 90% NW1215 52 mph 186° @ 0325 PM 72 61 98 64 30.00" 0.02 0.69 5    
Turkey 2WSW  06:25 PM 76 69 80% SE1216 24 mph 140° @ 1215 PM 77 63 100 78 29.89" 0 0.00 2    
Umbarger 3NNE  06:25 PM 70 64 81% SE2427 30 mph 165° @ 0323 PM 79 62 95 66 29.95" 0.01 0.09 532    
Vigo Park  06:25 PM 65 61 86% SE79 47 mph 158° @ 0546 PM 75 62 100 68 29.97" 0.74 1.45 8    

West Texas Mesonet Home   Site Map/Menu  NWS Lubbock Soil Data  Daily Summary Page  24hr Precip  72hr Precip  Google Plot